Regional Weather Roundup
Issued by NWS Cleveland, OH

Home | Current Version | Previous Version | Text Only | Print | Product List | Glossary Off
Versions: 1 2 3 4 5 6 7 8 9 10 11 12 13 14 15 16 17 18 19 20 21 22 23 24 25 26 27 28 29 30 31 32 33 34 35 36 37 38 39 40 41 42 43 44 45 46 47 48 49 50

469
ASUS41 KCLE 241410
RWRCLE
OHIO REGIONAL WEATHER ROUNDUP
NATIONAL WEATHER SERVICE CLEVELAND, OH
900 AM EST SAT FEB 24 2018

NOTE: "FAIR" INDICATES FEW OR NO CLOUDS BELOW 12,000 FEET WITH NO
SIGNIFICANT WEATHER AND/OR OBSTRUCTIONS TO VISIBILITY.

OHZ001>008-015>018-024>027-034-035-043-044-241500-
   NORTHWEST OHIO

CITY           SKY/WX    TMP DP  RH WIND       PRES   REMARKS
DEFIANCE       CLOUDY    37  34  89 E8        30.20R
FINDLAY        LGT RAIN  40  35  83 E9        30.18S
TOLEDO EXPRESS CLOUDY    39  35  86 E12       30.20R
TOLEDO EXEC    CLOUDY    38  33  82 NE7       30.22R
LIMA           LGT RAIN  40  39  97 E10       30.17R
$$

OHZ009>014-019>023-028>033-038-089-241500-
   NORTHEAST OHIO

CITY           SKY/WX    TMP DP  RH WIND       PRES   REMARKS
CLE-HOPKINS    LGT RAIN  38  35  89 NE10      30.24S
CLE-LAKEFRONT  CLOUDY    38  32  79 E10       30.21F
CUY CO. ARPT   LGT RAIN  37  34  87 E9        30.23F
LORAIN-ELYRIA  LGT RAIN  36  30  79 NE14      30.21S
ASHTABULA      CLOUDY    37  32  82 NE5       30.24R
AKRON-CANTON   RAIN      43  39  86 E7        30.18F FOG
WOOSTER        LGT RAIN  41  40  96 NE8       30.18F FOG
MANSFIELD      LGT RAIN  40  39  97 NE7       30.17S FOG
YOUNGSTOWN     LGT RAIN  40  38  93 N6        30.20S FOG
$$

OHZ042-051>053-060>062-070>072-077>081-241500-
  SOUTHWEST OHIO

CITY           SKY/WX    TMP DP  RH WIND       PRES   REMARKS
CINC-COVINGTON LGT RAIN  48  47  96 NE10      30.10R FOG
CINC-LUNKEN    LGT RAIN  49  48  97 N8        30.13R FOG
HAMILTON       LGT RAIN  48  48 100 NE5       30.14R FOG
DAYTON         RAIN      44  43  96 NE7       30.15R FOG
WRIGHT-PAT AFB RAIN      45  43  93 E6        30.14S FOG
DAYTON GENERAL LGT RAIN  46  44  93 NE7       30.13R FOG
WILMINGTON     LGT RAIN  45  45 100 NE10      30.11F FOG
$$

OHZ036-037-039>041-045>050-054>059-063>069-073>076-082>088-241500-
  CENTRAL AND SOUTHEAST OHIO

CITY           SKY/WX    TMP DP  RH WIND       PRES   REMARKS
COLUMBUS       HVY RAIN  47  45  93 NE8       30.14F FOG
OSU AIRPORT    RAIN      46  46 100 E9        30.13S FOG
BOLTON FIELD   HVY RAIN  46  45  93 E5        30.15R
RICKENBACK AFB HVY RAIN  46  46 100 CALM      30.17R
NEWARK         CLOUDY    47  44  90 NE6       30.12F
MARION         LGT RAIN  41  40  96 NE7       30.16F FOG
LANCASTER      CLOUDY    47  45  93 NE8       30.14F
ZANESVILLE     CLOUDY    48  44  86 NE12      30.13F
NEW PHILLY     NOT AVBL
$$




USA.gov is the U.S. government's official web portal to all federal, state and local government web resources and services.